Tracking 27122 objects as of 26-Mar-2023
HD Live streaming from Space Station
objects crossing your sky now

ION SCV-003

Track ION SCV-003 now!
10-day predictions


NORAD ID: 48912
Int'l Code: 2021-059AK
Perigee: 496.4 km
Apogee: 511.9 km
Inclination: 97.6 °
Period: 94.6 minutes
Semi major axis: 6875 km
RCS: Unknown
Launch date: June 30, 2021
Source: Italy (IT)
Launch site: AIR FORCE EASTERN TEST RANGE (AFETR)
Your satellite tracking list
Your tracking list is empty




NASA's NSSDC Master Catalog

Two Line Element Set (TLE):
1 48912U 21059AK  23084.32674763  .00023221  00000-0  98845-3 0  9993
2 48912  97.5587 217.8161 0011280 208.9470 151.1142 15.22939887 96537
Source of the keplerian elements: AFSPC